• In France
  • List of Countries
  • For 7 days
  • Water Temperature
  • Satellite Maps
  • Weather Map
  • Weather Widgets
  • user-avatar
    Login

    Hourly Weather Newcastle

    Today, 18 November, Saturday

    Time Temperature Precipitation Wind Pressure Humidity
    00:00 +1°C° 0 mm 4 mps 754 mmHg 87%
    01:00 +1°C° 0 mm 4 mps 754 mmHg 87%
    02:00 +3°C° 0 mm 4 mps 754 mmHg 87%
    03:00 +3°C° 0 mm 4 mps 753 mmHg 87%
    04:00 +3°C° 0 mm 4 mps 753 mmHg 88%
    05:00 +4°C° 0 mm 4 mps 753 mmHg 89%
    06:00 +3°C° 0 mm 4 mps 752 mmHg 89%
    07:00 +4°C° 0 mm 4 mps 752 mmHg 89%
    08:00 +4°C° 0 mm 4 mps 752 mmHg 89%
    09:00 +5°C° 0 mm 4 mps 752 mmHg 89%
    10:00 +5°C° 0.1 mm 4 mps 752 mmHg 86%
    11:00 +6°C° 0.1 mm 4 mps 752 mmHg 82%
    12:00 +7°C° 0.1 mm 4 mps 752 mmHg 78%
    13:00 +7°C° 0 mm 4 mps 752 mmHg 79%
    14:00 +7°C° 0 mm 4 mps 752 mmHg 79%
    15:00 +8°C° 0 mm 3 mps 752 mmHg 79%
    16:00 +7°C° 0 mm 3 mps 752 mmHg 80%
    17:00 +5°C° 0 mm 3 mps 752 mmHg 81%
    18:00 +5°C° 0 mm 3 mps 752 mmHg 82%
    19:00 +4°C° 0 mm 3 mps 752 mmHg 82%
    20:00 +4°C° 0 mm 3 mps 752 mmHg 82%
    21:00 +4°C° 0 mm 3 mps 753 mmHg 82%
    22:00 +3°C° 0 mm 3 mps 753 mmHg 82%
    23:00 +3°C° 0 mm 3 mps 753 mmHg 82%

    Tomorrow, 19 November, Sunday

    Time Temperature Precipitation Wind Pressure Humidity
    00:00 +3°C° 0 mm 3 mps 753 mmHg 82%
    01:00 +3°C° 0 mm 2 mps 753 mmHg 82%
    02:00 +3°C° 0 mm 2 mps 753 mmHg 82%
    03:00 +3°C° 0 mm 2 mps 753 mmHg 82%
    04:00 +3°C° 0 mm 2 mps 753 mmHg 82%
    05:00 +3°C° 0 mm 2 mps 753 mmHg 82%
    06:00 +2°C° 0 mm 2 mps 753 mmHg 83%
    07:00 +3°C° 0 mm 2 mps 753 mmHg 82%
    08:00 +4°C° 0 mm 1 mps 754 mmHg 81%
    09:00 +4°C° 0 mm 1 mps 754 mmHg 80%
    10:00 +5°C° 0 mm 1 mps 754 mmHg 77%
    11:00 +6°C° 0 mm 1 mps 754 mmHg 74%
    12:00 +7°C° 0 mm 2 mps 754 mmHg 71%
    13:00 +6°C° 0 mm 2 mps 754 mmHg 73%
    14:00 +6°C° 0 mm 2 mps 753 mmHg 76%
    15:00 +6°C° 0 mm 2 mps 753 mmHg 78%
    16:00 +6°C° 0 mm 2 mps 753 mmHg 81%
    17:00 +6°C° 0 mm 2 mps 753 mmHg 83%
    18:00 +5°C° 0 mm 2 mps 752 mmHg 86%
    19:00 +5°C° 0 mm 2 mps 752 mmHg 87%
    20:00 +5°C° 0 mm 2 mps 752 mmHg 89%
    21:00 +4°C° 0 mm 3 mps 752 mmHg 91%
    22:00 +4°C° 0 mm 3 mps 751 mmHg 92%
    23:00 +5°C° 0 mm 4 mps 751 mmHg 93%

    Day after tomorrow, 20 November, Monday

    Time Temperature Precipitation Wind Pressure Humidity
    00:00 +6°C° 0 mm 4 mps 750 mmHg 94%
    01:00 +7°C° 0.4 mm 5 mps 749 mmHg 93%
    02:00 +7°C° 0.4 mm 5 mps 749 mmHg 92%
    03:00 +8°C° 0.4 mm 6 mps 748 mmHg 91%
    04:00 +8°C° 0.1 mm 6 mps 747 mmHg 91%
    05:00 +9°C° 0.1 mm 6 mps 747 mmHg 91%
    06:00 +9°C° 0.1 mm 6 mps 746 mmHg 90%
    07:00 +10°C° 0.1 mm 6 mps 746 mmHg 90%
    08:00 +10°C° 0.1 mm 6 mps 746 mmHg 90%
    09:00 +10°C° 0.1 mm 6 mps 746 mmHg 91%
    10:00 +11°C° 0.1 mm 6 mps 746 mmHg 90%
    11:00 +11°C° 0.1 mm 6 mps 746 mmHg 89%
    12:00 +11°C° 0.1 mm 7 mps 745 mmHg 88%
    13:00 +11°C° 1.2 mm 7 mps 745 mmHg 89%
    14:00 +11°C° 1.2 mm 7 mps 745 mmHg 89%
    15:00 +12°C° 1.2 mm 8 mps 744 mmHg 89%
    16:00 +11°C° 0.7 mm 6 mps 745 mmHg 90%
    17:00 +12°C° 0.7 mm 5 mps 745 mmHg 92%
    18:00 +12°C° 0.7 mm 4 mps 745 mmHg 93%
    19:00 +12°C° 0.6 mm 4 mps 745 mmHg 93%
    20:00 +12°C° 0.6 mm 3 mps 746 mmHg 94%
    21:00 +12°C° 0.6 mm 3 mps 746 mmHg 94%
    22:00 +11°C° 0.1 mm 3 mps 746 mmHg 94%
    23:00 +11°C° 0.1 mm 3 mps 746 mmHg 94%

    21 November, Tuesday

    Time Temperature Precipitation Wind Pressure Humidity
    00:00 +11°C° 0.1 mm 4 mps 746 mmHg 94%
    01:00 +11°C° 0 mm 4 mps 746 mmHg 93%
    02:00 +10°C° 0 mm 4 mps 745 mmHg 93%
    03:00 +10°C° 0 mm 4 mps 745 mmHg 93%
    04:00 +8°C° 0 mm 4 mps 745 mmHg 93%
    05:00 +9°C° 0 mm 3 mps 744 mmHg 94%
    06:00 +8°C° 0 mm 3 mps 744 mmHg 94%
    07:00 +8°C° 0 mm 4 mps 744 mmHg 93%
    08:00 +8°C° 0 mm 4 mps 744 mmHg 92%
    09:00 +8°C° 0 mm 5 mps 744 mmHg 91%
    10:00 +9°C° 0 mm 5 mps 743 mmHg 89%
    11:00 +10°C° 0 mm 5 mps 743 mmHg 86%
    12:00 +11°C° 0 mm 6 mps 743 mmHg 83%
    13:00 +11°C° 0 mm 6 mps 742 mmHg 83%
    14:00 +11°C° 0 mm 6 mps 742 mmHg 83%
    15:00 +11°C° 0 mm 6 mps 742 mmHg 83%
    16:00 +11°C° 0 mm 6 mps 741 mmHg 84%
    17:00 +11°C° 0 mm 6 mps 741 mmHg 86%
    18:00 +11°C° 0 mm 6 mps 741 mmHg 88%
    19:00 +11°C° 0 mm 6 mps 741 mmHg 87%
    20:00 +11°C° 0 mm 6 mps 740 mmHg 86%
    21:00 +11°C° 0 mm 7 mps 740 mmHg 85%
    22:00 +10°C° 0 mm 7 mps 740 mmHg 85%
    23:00 +10°C° 0 mm 7 mps 740 mmHg 84%

    22 November, Wednesday

    Time Temperature Precipitation Wind Pressure Humidity
    00:00 +10°C° 0 mm 7 mps 740 mmHg 84%
    01:00 +10°C° 0 mm 7 mps 739 mmHg 83%
    02:00 +10°C° 0 mm 7 mps 739 mmHg 83%
    03:00 +10°C° 0 mm 7 mps 739 mmHg 83%
    04:00 +10°C° 0 mm 7 mps 738 mmHg 84%
    05:00 +10°C° 0 mm 7 mps 738 mmHg 85%
    06:00 +10°C° 0 mm 7 mps 738 mmHg 86%
    07:00 +10°C° 0 mm 7 mps 738 mmHg 85%
    08:00 +10°C° 0 mm 7 mps 738 mmHg 85%
    09:00 +10°C° 0 mm 7 mps 738 mmHg 84%
    10:00 +11°C° 0 mm 8 mps 738 mmHg 82%
    11:00 +12°C° 0 mm 8 mps 738 mmHg 79%
    12:00 +12°C° 0 mm 8 mps 737 mmHg 77%
    13:00 +12°C° 0 mm 8 mps 737 mmHg 76%
    14:00 +12°C° 0 mm 7 mps 737 mmHg 75%
    15:00 +12°C° 0 mm 7 mps 736 mmHg 75%
    16:00 +12°C° 0 mm 7 mps 736 mmHg 73%
    17:00 +11°C° 0 mm 7 mps 736 mmHg 70%
    18:00 +11°C° 0 mm 7 mps 735 mmHg 68%
    19:00 +11°C° 0 mm 7 mps 735 mmHg 69%
    20:00 +11°C° 0 mm 7 mps 734 mmHg 69%
    21:00 +10°C° 0 mm 8 mps 734 mmHg 69%
    22:00 +10°C° 0 mm 8 mps 733 mmHg 69%
    23:00 +10°C° 0 mm 8 mps 733 mmHg 69%

    23 November, Thursday

    Time Temperature Precipitation Wind Pressure Humidity
    00:00 +10°C° 0 mm 8 mps 732 mmHg 69%
    01:00 +10°C° 0 mm 7 mps 731 mmHg 72%
    02:00 +10°C° 0 mm 7 mps 731 mmHg 74%
    03:00 +10°C° 0 mm 7 mps 730 mmHg 76%
    04:00 +9°C° 0.2 mm 7 mps 730 mmHg 80%
    05:00 +9°C° 0.2 mm 6 mps 729 mmHg 83%
    06:00 +9°C° 0.2 mm 6 mps 729 mmHg 86%
    07:00 +10°C° 0.1 mm 6 mps 729 mmHg 86%
    08:00 +10°C° 0.1 mm 6 mps 730 mmHg 86%
    09:00 +10°C° 0.1 mm 6 mps 731 mmHg 86%
    10:00 +11°C° 0 mm 6 mps 732 mmHg 83%
    11:00 +11°C° 0 mm 7 mps 733 mmHg 79%
    12:00 +12°C° 0 mm 7 mps 733 mmHg 76%
    13:00 +12°C° 0 mm 7 mps 734 mmHg 76%
    14:00 +13°C° 0 mm 6 mps 734 mmHg 77%
    15:00 +13°C° 0 mm 6 mps 735 mmHg 77%
    16:00 +11°C° 0 mm 6 mps 735 mmHg 80%
    17:00 +11°C° 0 mm 6 mps 735 mmHg 83%
    18:00 +10°C° 0 mm 6 mps 736 mmHg 86%
    19:00 +11°C° 0 mm 6 mps 736 mmHg 86%
    20:00 +12°C° 0 mm 7 mps 736 mmHg 85%
    21:00 +12°C° 0 mm 7 mps 736 mmHg 85%
    22:00 +12°C° 0.1 mm 7 mps 737 mmHg 85%
    23:00 +13°C° 0.1 mm 6 mps 737 mmHg 86%
    Show more